Retour au catalogue

THOR ABLESTAR DEB

ActifLEO
NORAD 210·DEBRIS·🇺🇸 United States

Lancé Jun 29, 1961 depuis Cape Canaveral Space Force Station

Loading…

Prochains Passages (prochaines 24 heures)

TLE

FraisSource: Space-Track

Époque: Sep 14, 2026, 09:50 UTC

1 00210U 61015BE  26257.40980039  .00000342  00000-0  34226-3 0  9990
2 00210  66.4565 145.2884 0053193 258.7633 100.7461 13.89160462277795

Suivez THOR ABLESTAR DEB en temps réel avec AllMySat

Download on the App Store